Helicity
-7 18 16 99 168 268 268 279 262 220 113 193 198 145 104 -57 191 335 159 159 186 219 303 322 326 362 279 224 232 223 212 204 153 95 58 49 70 71 53 96 154 177 178
-8 17 5 36 192 279 386 290 444 342 312 337 299 265 325 433 295 507 541 131 186 264 251 282 253 240 203 187 163 142 151 156 183 90 115 99 93 85 96 141 170 192 190
-19 -12 18 34 80 212 366 372 422 353 465 434 491 433 411 381 367 383 152 713 616 544 473 399 400 402 274 203 130 109 122 123 149 164 110 122 139 172 160 172 176 191 195
26 -12 6 3 12 53 142 222 308 304 238 450 501 503 485 532 431 473 886 468 718 622 605 551 530 478 410 343 269 262 234 175 178 193 178 120 145 163 249 201 195 205 197
20 23 20 11 -9 -31 52 105 177 227 230 246 413 488 539 568 690 488 388 316 652 620 669 530 547 451 241 363 165 153 178 158 187 182 197 214 216 260 281 299 233 199 214
37 27 27 41 24 -7 8 15 47 129 190 241 249 284 425 437 390 365 294 370 164 582 562 587 505 427 401 236 104 104 172 173 141 194 262 206 184 238 241 239 214 258 185
24 41 43 45 50 51 25 48 48 30 46 91 168 262 260 313 443 420 435 247 195 260 356 592 348 357 200 113 81 121 79 112 156 186 168 189 233 260 251 241 212 211 219
37 39 42 44 36 35 40 42 52 68 103 101 93 109 191 181 359 414 285 101 20 54 105 193 245 169 99 102 124 122 144 171 164 172 168 151 189 224 189 194 201 262 325
38 42 39 24 20 38 50 26 3 0 -2 23 64 114 156 203 219 187 141 184 172 197 136 82 81 110 180 161 100 96 115 133 151 144 146 145 144 151 141 203 354 383 332
27 17 17 21 19 19 31 11 6 -5 -7 -25 4 64 121 164 189 160 113 99 104 110 114 126 174 157 186 178 121 96 113 160 165 155 112 119 109 132 101 155 183 259 295
38 34 32 24 -12 22 -1 5 5 -12 -3 32 43 56 80 78 117 148 136 92 96 44 49 83 107 145 152 151 150 97 109 127 133 116 126 137 134 161 148 169 120 239 253
61 55 59 50 15 -27 -13 23 41 43 53 49 56 84 110 126 151 157 147 97 76 23 49 68 85 134 148 119 94 154 164 122 81 74 66 90 118 144 194 149 116 99 163
49 53 64 70 64 -7 -59 -32 3 47 43 49 53 51 92 121 125 192 180 165 138 66 31 65 105 116 149 143 178 172 123 106 117 100 87 59 71 93 99 67 98 123 142
17 27 33 39 56 45 -41 -90 -58 5 7 16 8 29 32 58 92 92 105 132 159 136 140 118 114 124 117 107 147 154 121 114 105 119 146 144 101 100 76 82 29 53 49
-17 -8 -2 -5 2 6 -3 -38 -54 -24 -31 -36 -24 -30 6 9 20 15 9 12 26 45 54 61 117 133 151 196 211 198 176 161 165 166 162 155 150 147 145 127 88 49 86
-16 -26 -39 -36 -36 -44 -45 -41 -5 13 50 56 60 -6 -37 49 90 88 69 79 107 34 5 28 80 93 101 123 137 173 165 196 183 161 159 159 162 153 161 186 133 136 90
-27 -30 -27 -31 -30 -28 -32 -46 -58 -65 0 41 64 56 64 66 95 111 86 59 113 67 17 41 54 91 127 133 134 125 167 190 171 128 115 129 156 158 145 149 178 174 162
21 9 9 -3 -17 -27 -26 -25 -30 -38 -25 -11 2 24 32 52 56 87 85 31 84 89 15 43 70 87 105 127 147 162 187 197 207 191 157 143 115 100 122 121 136 167 215
33 39 37 37 30 16 3 -15 -32 -38 -26 -17 -5 11 2 4 20 40 52 -36 -29 1 28 44 61 77 89 100 119 139 143 156 164 183 185 152 131 108 115 110 97 134 189
65 55 62 63 60 48 36 20 3 -16 -31 -35 -26 -15 -2 -1 16 8 -7 -26 -19 -15 -8 4 14 28 49 63 87 100 120 150 167 157 160 130 102 66 55 62 73 105 168
90 77 80 85 80 72 64 52 39 26 9 -10 -26 -28 -19 -29 -21 -8 -2 9 5 4 4 -8 -2 7 24 47 62 80 86 105 133 161 156 156 124 99 70 61 57 72 102
100 96 92 92 91 90 83 80 74 62 49 34 17 12 13 -10 -4 6 11 7 -5 -4 -7 -7 4 0 2 15 38 62 74 92 117 150 166 146 135 110 88 64 66 71 83
115 122 116 112 105 107 104 95 93 90 83 73 64 60 49 37 36 36 39 35 26 17 14 13 8 15 11 11 8 14 40 67 89 94 114 130 124 113 96 86 74 61 68
127 129 124 121 121 121 115 105 104 103 102 101 92 88 94 81 72 68 67 73 56 44 28 16 20 21 17 21 28 36 32 44 50 75 74 86 105 114 107 101 92 90 78
143 146 145 132 130 117 120 111 113 109 105 105 106 101 92 93 90 83 83 78 70 60 50 41 35 38 39 40 52 64 72 85 73 83 65 74 97 115 116 102 114 115 116
156 158 153 144 137 126 123 115 101 104 105 98 104 95 97 94 86 82 82 76 71 67 61 48 49 52 49 48 72 82 83 94 88 106 63 67 73 94 106 126 132 110 130
Wind_Speed
93 92 87 85 82 79 80 82 81 81 77 79 78 86 87 83 71 79 109 92 107 94 85 73 70 61 61 55 53 54 50 49 51 51 37 35 34 22 14 18 30 39 40
93 92 89 86 84 79 78 72 73 70 61 58 58 57 62 64 65 72 83 120 97 89 80 71 71 67 69 64 61 61 57 53 54 53 50 39 38 44 51 41 36 32 36
90 92 91 91 87 76 60 73 59 54 46 35 31 37 41 48 53 57 64 60 78 70 69 65 60 59 65 67 68 68 61 59 50 57 65 54 46 49 55 55 58 48 48
85 88 92 90 84 80 60 55 42 55 43 38 32 28 31 36 46 45 50 63 64 54 54 52 52 51 54 63 68 68 66 67 61 59 66 67 60 59 53 52 55 55 58
82 81 85 85 82 75 53 44 49 49 52 46 42 34 32 32 40 34 36 54 45 52 53 50 51 54 52 67 77 76 73 73 74 71 66 66 61 57 56 58 57 63 58
84 80 78 79 72 67 56 57 62 51 58 58 50 40 34 30 31 27 37 53 51 49 53 49 50 57 64 61 73 82 78 81 86 80 78 70 66 62 64 63 61 58 65
79 82 81 79 77 68 61 63 60 59 55 52 49 48 43 39 36 38 35 39 48 41 48 42 45 50 53 65 76 82 86 87 86 87 87 88 82 64 63 64 61 62 59
76 76 78 81 78 74 71 63 63 54 56 56 49 52 50 47 47 49 45 38 39 36 38 41 45 54 60 70 74 82 87 86 84 84 85 92 87 84 72 67 61 62 64
74 74 74 75 76 76 71 71 67 56 59 56 55 54 54 58 61 57 43 48 47 49 48 44 47 53 63 71 74 81 82 83 77 85 90 95 92 84 75 68 64 63 69
73 72 71 71 74 74 73 69 68 68 65 65 67 68 67 63 64 57 48 39 39 42 45 46 50 54 60 64 67 73 79 81 84 88 88 86 84 77 68 65 63 63 69
70 70 70 68 66 71 70 69 68 65 65 66 66 69 68 67 65 65 62 55 51 49 46 49 51 56 58 59 61 66 72 75 73 73 74 73 73 67 65 67 63 57 59
68 68 68 68 66 64 69 71 71 69 68 69 68 67 69 69 67 65 64 60 57 53 53 56 55 58 57 56 58 63 65 64 64 66 67 68 68 68 70 73 77 75 71
66 66 67 67 68 65 69 71 73 71 69 68 68 67 66 66 65 63 61 60 58 55 54 55 56 56 57 57 61 64 63 62 64 66 70 71 72 74 75 76 77 75 73
65 65 65 65 66 66 62 65 68 70 69 70 69 67 65 65 66 65 63 62 60 58 58 58 59 58 58 59 61 63 64 64 65 68 71 74 75 74 76 74 79 80 84
66 67 66 65 65 65 64 64 67 68 67 65 66 65 68 69 69 66 65 65 63 62 60 59 62 63 64 65 67 68 68 68 70 71 72 74 75 76 76 76 78 77 81
69 71 71 71 69 67 66 64 64 67 68 68 68 67 65 67 69 68 65 66 67 64 63 65 67 68 68 70 70 72 71 73 74 73 73 75 77 79 80 79 77 80 86
69 71 70 73 74 74 74 73 71 69 69 70 71 69 69 68 70 69 68 66 68 67 66 68 69 70 72 72 73 74 75 76 76 74 75 76 77 78 79 79 78 79 83
65 68 70 71 73 73 74 74 73 74 76 76 74 73 70 69 69 70 69 67 70 71 70 71 72 73 74 74 74 75 77 77 77 76 76 76 76 77 77 76 75 75 74
62 63 66 67 68 70 71 72 73 73 72 73 74 76 76 73 71 71 71 69 69 70 72 72 72 72 73 74 75 74 75 76 76 76 75 75 74 74 74 72 72 70 68
56 60 61 62 64 67 69 70 72 73 73 74 75 77 77 75 78 79 78 75 74 72 71 71 72 72 72 72 73 74 73 75 75 74 73 71 71 70 69 69 67 65 62
52 55 57 59 60 62 64 67 68 70 72 74 74 75 77 77 77 76 75 76 75 74 74 73 73 73 73 73 73 73 72 72 72 71 71 69 68 67 65 62 62 59 56
49 50 52 55 56 58 60 62 65 67 69 70 72 72 74 74 75 75 74 73 74 73 72 73 73 72 72 72 73 72 72 72 72 71 70 67 65 62 60 58 57 56 53
45 46 49 51 52 53 55 57 60 62 65 67 67 68 70 73 73 73 73 72 72 73 73 73 72 73 72 71 70 70 71 71 71 70 68 65 62 60 57 55 54 52 48
43 44 45 47 49 51 52 53 56 58 59 63 64 64 66 69 72 71 69 70 68 70 72 72 72 73 73 73 73 72 71 70 68 67 65 62 60 58 54 52 49 47 44
40 43 44 45 47 48 50 50 53 54 56 58 60 60 62 64 68 69 66 67 68 67 70 71 72 73 73 73 74 75 74 71 67 65 61 59 58 55 52 49 46 42 40
39 41 44 45 47 48 49 50 51 52 55 57 57 56 59 62 64 66 66 66 67 65 67 70 71 72 72 71 74 75 73 71 67 64 59 56 55 53 50 47 45 40 36
Wind_Direction
344 348 338 340 334 327 319 315 307 296 287 280 277 272 269 263 255 263 252 234 239 239 241 240 244 248 254 259 263 266 270 279 284 289 288 289 294 289 270 280 290 284 281
350 356 348 349 345 337 326 320 318 307 305 294 282 278 273 262 254 263 274 246 238 236 239 241 246 250 254 260 263 266 271 275 279 280 283 280 284 290 293 296 294 276 273
351 354 1 360 353 340 319 330 321 319 329 315 304 288 281 271 264 268 267 267 231 233 235 238 244 252 258 262 263 265 269 273 275 278 280 282 285 288 291 295 294 289 283
348 354 1 1 354 1 328 326 319 346 328 345 328 312 304 288 274 277 274 275 244 231 236 238 246 254 260 266 266 268 271 271 273 277 279 281 284 287 291 292 293 290 287
347 348 354 356 359 353 336 325 333 340 348 349 347 333 317 314 290 279 290 274 261 248 240 244 254 264 269 272 265 265 270 272 276 280 280 282 282 285 287 290 289 290 286
358 349 347 350 348 348 345 343 349 344 350 355 353 344 334 314 322 317 286 284 276 258 254 257 263 269 276 275 270 267 273 273 274 278 281 280 280 283 286 288 288 287 288
352 1 355 353 352 348 347 351 353 353 352 353 354 353 353 343 328 309 313 294 286 277 268 262 265 278 282 279 277 276 273 275 276 278 278 275 281 284 284 284 283 284 280
349 350 354 359 357 354 354 350 353 352 356 357 353 357 360 357 351 336 326 308 292 289 288 286 288 283 289 287 285 280 276 279 280 279 279 278 279 280 281 281 281 282 285
345 346 347 357 356 358 354 357 357 350 356 356 358 1 4 4 0 352 326 323 316 313 310 304 300 297 294 289 286 282 282 282 287 282 280 279 277 275 278 280 276 278 281
347 344 344 349 360 0 359 356 359 3 0 5 6 6 5 6 3 359 351 339 332 322 320 320 308 301 302 298 294 291 287 288 289 285 283 282 282 275 271 276 277 274 280
349 349 349 346 353 359 5 359 4 0 359 359 1 6 5 5 360 359 357 349 340 336 327 324 322 317 316 311 307 301 296 293 294 291 288 288 287 282 273 279 276 274 277
349 350 350 349 349 355 355 357 355 352 351 353 354 356 358 358 355 352 353 351 345 339 330 330 326 324 323 319 315 311 308 305 301 298 295 292 291 287 282 280 281 281 280
351 349 349 347 348 350 351 352 354 353 354 354 355 354 352 351 352 348 347 346 344 341 336 332 330 328 327 322 322 320 316 312 307 302 297 294 293 291 287 284 284 283 286
2 359 353 352 352 352 356 356 355 352 352 352 350 348 346 345 346 346 344 341 338 335 331 333 333 332 331 328 324 322 321 319 315 307 302 300 299 297 292 291 287 285 284
13 11 8 3 358 355 355 355 356 355 354 349 349 349 345 344 342 342 343 341 337 336 333 333 332 331 328 328 326 325 324 323 319 316 312 307 304 301 297 295 289 287 282
22 18 16 16 13 9 4 359 359 359 356 355 352 352 348 346 343 342 341 340 340 336 337 335 332 330 328 325 323 321 324 323 322 319 317 315 310 306 301 298 295 290 284
22 21 23 22 21 21 19 12 6 3 2 360 356 352 351 345 345 343 342 341 341 339 337 333 330 329 327 326 326 325 322 322 323 323 318 316 316 312 307 304 300 294 287
39 35 33 30 25 22 20 22 22 17 9 5 3 0 355 352 349 347 343 340 338 339 337 334 330 328 326 325 323 323 322 322 323 322 322 320 317 314 311 309 306 300 294
43 43 39 38 36 32 28 24 20 17 16 15 12 7 3 359 357 354 350 347 340 337 335 333 332 330 328 327 326 324 323 322 323 323 323 323 322 320 319 316 312 308 300
49 45 43 41 39 36 32 28 23 18 14 11 9 7 8 7 2 358 356 352 348 342 337 334 333 331 329 328 327 326 325 325 325 325 324 325 324 323 322 320 318 313 309
47 44 42 40 38 36 33 29 24 20 15 11 7 7 6 5 3 3 1 358 355 351 346 341 336 332 330 328 327 327 327 325 325 325 326 327 326 326 328 328 326 324 320
41 40 38 36 34 32 30 28 23 19 15 11 8 7 6 5 3 2 1 360 358 355 352 348 343 340 334 329 326 324 324 323 322 322 322 323 325 326 329 333 334 335 332
34 33 31 30 29 27 25 23 20 17 13 10 8 6 5 3 2 1 359 358 357 354 352 348 345 342 339 336 332 327 323 321 320 320 319 319 320 322 327 331 336 341 344
27 26 25 23 21 19 18 17 15 13 10 7 5 4 2 1 360 359 358 357 356 354 352 349 346 342 339 337 334 330 326 322 321 320 319 317 317 320 323 328 333 341 348
17 16 15 14 13 12 11 10 8 7 5 3 1 1 360 359 357 356 356 355 353 352 351 349 347 344 341 338 334 331 327 324 321 319 320 319 317 318 320 323 327 334 343
8 7 6 5 4 3 2 2 1 1 359 358 357 356 356 355 355 354 353 352 351 351 349 348 346 344 342 340 337 333 330 327 323 320 318 318 318 318 317 318 321 326 331